Theta_e
333 334 334 333 334 335 335 335 335 334 334 334 334 334 335 337 337 338 339 339 339 340 341 338 335 333 334 336 336 334 335 338 339 339 339 339 339 338 339 339 339 340 340 340 341 341 341 341 340 340 340 340 341 341 341 341 341 341 341 342 342 342 343 343 342 341 342 343 345 344 343 342 341 341
332 333 333 333 334 336 334 333 334 335 334 335 334 334 334 336 337 338 339 339 339 340 341 339 336 334 334 335 336 335 334 336 340 341 340 339 339 339 339 339 340 340 340 341 341 341 341 341 340 340 340 340 340 340 340 340 340 340 340 341 341 342 343 343 344 343 343 344 345 345 344 344 344 343
332 333 333 333 333 333 332 332 334 335 334 335 336 335 333 334 335 337 338 339 339 339 340 339 337 336 335 335 337 337 335 336 340 341 341 339 339 339 339 339 339 340 340 341 341 340 340 340 340 341 341 342 342 341 341 341 341 341 340 341 342 343 343 344 345 345 345 345 346 345 343 344 345 345
333 333 334 334 332 333 333 332 334 335 335 334 335 335 334 333 333 334 338 339 339 338 339 339 338 338 336 335 337 338 337 336 338 339 340 340 340 340 339 339 339 339 339 339 340 340 341 341 342 342 343 343 343 344 343 343 343 343 342 342 343 344 344 344 345 346 347 346 345 344 344 344 345 345
332 333 334 334 333 334 335 335 336 337 336 334 335 336 334 333 332 334 336 338 337 337 337 338 338 339 339 337 338 340 339 338 337 338 339 339 339 340 339 338 338 338 338 338 338 339 339 339 339 339 339 340 340 341 341 343 343 344 343 343 343 344 344 345 345 346 346 346 346 345 345 346 346 346
332 332 333 333 334 335 335 337 337 338 337 335 335 335 334 334 333 334 335 336 337 337 338 338 338 339 340 339 337 339 341 340 339 338 338 338 337 338 339 338 337 337 337 336 337 337 337 337 337 337 337 337 337 338 340 341 342 343 343 343 344 344 344 344 344 345 346 346 346 346 346 347 346 346
332 333 333 333 333 335 336 336 337 338 338 336 335 335 334 335 335 334 333 334 336 337 337 338 339 339 341 340 338 337 338 340 341 340 339 339 338 338 338 339 339 338 338 337 337 337 337 337 337 337 337 337 337 338 339 340 342 343 343 343 343 344 344 344 344 344 345 345 345 345 346 346 346 346
331 333 334 333 333 335 335 336 337 337 336 336 336 335 334 334 334 334 333 332 333 335 336 337 338 339 340 340 339 338 337 338 341 341 340 340 339 338 337 338 339 339 339 338 337 337 337 337 337 338 338 338 338 337 337 338 340 342 343 343 343 344 344 344 345 345 345 345 345 346 346 346 346 346
328 330 332 333 334 335 334 335 337 336 335 335 335 335 334 333 333 334 334 333 332 333 334 335 336 338 339 339 340 339 338 337 339 340 339 340 340 338 338 338 340 340 338 338 337 337 337 337 338 339 339 338 338 338 337 337 339 341 343 343 343 343 343 343 344 344 345 345 345 345 346 346 347 346
328 329 330 332 334 335 334 335 335 335 335 334 335 335 334 333 333 334 334 333 333 333 334 334 335 337 338 339 339 338 338 337 339 340 340 341 341 340 339 340 341 341 339 338 337 337 337 338 339 337 337 336 337 338 338 338 339 341 342 342 342 343 343 343 344 344 345 345 345 345 345 345 346 346
328 330 329 330 332 334 335 334 334 335 335 335 334 335 334 334 333 334 333 334 334 334 334 333 334 336 338 339 338 336 336 337 339 340 341 342 342 341 340 339 340 341 340 338 338 337 337 338 338 335 335 335 336 337 338 338 339 341 341 341 341 342 343 343 344 344 345 345 345 345 345 345 345 346
328 330 330 330 330 332 334 335 334 335 335 335 335 334 334 334 334 334 334 334 334 334 334 333 334 337 339 339 338 336 337 339 341 341 342 343 343 342 341 339 339 340 340 340 339 337 337 338 336 334 333 334 335 337 338 337 338 340 340 341 341 341 342 343 343 343 344 344 344 344 345 345 346 346
328 329 330 331 331 330 331 334 335 335 334 336 336 335 334 334 334 334 334 334 334 334 334 334 335 337 339 338 338 337 339 341 341 341 341 342 343 342 341 340 339 339 340 340 339 338 338 337 335 334 333 334 336 337 337 337 338 338 340 341 341 342 343 343 343 344 343 344 344 345 345 345 346 346
327 328 329 331 331 330 329 331 333 335 334 334 335 335 335 335 334 334 333 334 334 333 334 334 335 337 338 338 338 337 338 339 340 340 338 340 342 341 341 340 339 339 339 340 340 339 338 337 335 334 333 333 336 338 337 338 338 339 340 340 340 341 343 343 343 344 343 344 345 345 345 345 345 345
325 327 329 332 332 331 330 330 331 333 334 334 334 334 335 335 335 335 334 334 335 334 334 334 336 337 338 339 338 337 337 337 337 336 336 339 342 341 340 341 340 340 340 340 340 340 338 336 335 334 333 333 336 338 338 338 338 339 340 340 340 341 342 343 343 344 343 343 343 343 344 343 343 343
325 327 329 332 333 333 333 332 331 332 333 333 334 334 334 334 334 334 334 335 335 335 335 335 336 337 338 339 338 337 338 336 333 332 334 338 341 341 341 341 342 341 341 341 340 339 337 336 334 334 333 334 336 338 337 338 338 339 340 340 340 341 342 343 344 343 342 342 341 340 339 338 337 338
324 326 329 331 332 333 334 334 335 334 333 334 334 334 335 335 334 333 333 334 334 335 335 335 336 337 337 338 338 337 337 335 332 331 333 337 340 340 341 342 341 341 341 340 340 339 337 336 335 334 333 334 336 337 337 338 338 339 339 339 341 342 343 344 344 342 341 339 338 336 335 334 334 336
322 324 327 329 331 332 333 334 335 336 336 336 335 334 335 335 334 333 333 333 333 333 334 334 335 335 336 337 337 337 336 333 333 333 333 334 336 337 339 341 340 340 340 340 340 339 337 335 335 334 334 335 336 337 337 338 339 339 339 339 340 342 344 344 344 342 340 338 337 337 336 334 334 335
321 322 324 326 327 329 331 331 333 334 335 336 336 335 335 335 335 334 334 334 334 334 334 334 334 334 335 335 335 336 336 335 334 333 334 335 335 337 340 341 340 340 340 340 340 338 337 336 336 334 335 336 337 337 338 339 339 338 338 339 341 343 344 344 344 343 341 340 339 340 339 338 337 336
322 320 321 322 323 325 328 329 331 332 334 335 336 336 337 337 336 336 335 335 335 335 335 335 335 334 334 334 334 335 336 337 336 335 338 339 339 340 341 341 341 341 339 339 339 337 337 337 336 335 336 337 338 338 339 339 339 338 338 340 342 343 343 343 343 343 343 343 343 342 343 342 340 339
324 321 320 322 323 323 325 328 329 331 332 334 335 336 336 337 336 336 336 337 337 336 336 335 335 335 335 334 334 334 334 335 336 337 340 341 341 341 342 341 342 341 339 339 338 336 337 338 336 336 338 338 338 338 338 338 338 338 339 341 342 343 342 342 342 342 343 343 342 342 343 344 343 342
326 323 320 322 323 322 324 325 327 329 331 333 335 336 336 336 336 337 337 337 337 337 337 336 335 335 335 335 335 334 333 334 335 337 339 340 340 340 341 341 341 340 339 339 338 336 335 337 337 337 340 341 339 338 337 337 338 340 341 341 342 341 342 342 341 341 341 342 341 341 341 342 343 343
326 324 321 321 323 323 323 324 325 327 330 331 333 334 336 336 337 337 337 337 337 337 337 337 336 335 335 335 336 335 334 335 336 337 338 340 341 340 341 341 341 341 340 340 338 336 335 338 339 338 341 342 340 337 337 337 339 342 342 342 340 340 340 341 341 341 341 341 341 340 340 340 340 341
325 324 321 322 324 324 323 323 324 325 328 330 331 333 335 336 337 338 338 338 337 337 338 337 336 335 335 336 336 335 335 336 337 338 339 341 340 341 342 342 341 340 339 338 337 337 337 339 341 340 340 341 341 339 338 337 339 341 342 341 339 339 339 340 340 340 340 340 340 340 339 339 339 339
325 326 323 322 324 326 324 323 323 325 326 328 330 332 334 335 337 338 339 339 338 338 338 338 337 336 336 336 336 336 336 337 337 339 340 341 341 341 341 342 342 339 338 337 337 338 339 340 341 341 340 340 340 340 339 338 339 340 341 340 339 338 338 338 338 338 338 338 338 338 338 338 338 338
326 327 325 322 324 326 326 323 322 323 325 327 328 330 333 335 336 336 338 339 339 338 338 338 338 337 337 336 335 336 337 337 337 339 340 340 340 340 340 340 341 339 337 337 337 338 340 341 341 340 340 339 339 340 339 338 338 339 340 339 338 337 337 336 336 336 336 336 336 336 336 336 337 338
325 327 326 324 324 325 326 325 322 322 324 325 326 329 332 334 335 335 336 338 339 339 338 338 337 336 336 336 336 337 338 337 337 339 340 340 339 339 339 339 338 337 338 339 339 339 340 340 339 338 338 338 339 340 340 340 339 339 339 338 337 336 336 336 336 336 336 336 337 336 337 337 337 338
324 325 325 325 324 324 325 325 324 322 322 323 325 329 331 332 333 334 335 336 338 338 338 338 338 337 336 337 338 338 338 338 339 340 340 339 338 338 339 338 338 337 338 340 341 340 338 338 338 338 338 338 338 340 341 341 340 338 338 337 336 335 334 334 335 337 337 338 338 338 338 338 338 339
323 323 323 324 325 325 324 325 325 324 322 322 323 327 329 330 331 332 334 335 336 337 338 338 338 338 338 339 338 338 338 339 341 341 339 338 338 339 339 338 338 339 340 340 340 338 337 337 338 339 339 338 338 340 341 340 339 337 336 336 335 335 333 333 334 335 335 336 337 337 337 338 339 339
320 320 320 323 325 325 323 324 325 325 324 322 322 324 327 329 330 330 331 332 333 335 337 338 338 338 339 339 338 338 339 339 339 338 337 337 339 340 339 338 338 339 339 339 337 335 336 337 338 338 340 340 339 339 339 338 338 336 335 336 336 335 334 333 333 334 333 334 335 335 335 337 339 339
319 319 320 322 324 323 323 324 325 325 325 323 321 321 323 325 328 328 329 330 331 332 333 334 336 337 338 338 339 338 338 338 337 337 338 338 339 339 339 339 339 339 338 337 336 336 337 337 336 337 340 340 339 338 337 339 340 337 334 336 338 337 335 335 335 334 334 334 334 334 334 334 336 337
319 320 321 323 323 322 322 323 324 325 325 324 322 321 321 322 324 325 326 327 329 330 331 331 333 334 335 336 337 336 336 335 334 334 335 336 336 337 337 337 337 336 336 336 336 336 337 337 336 336 338 339 339 338 336 338 340 339 336 336 336 337 336 335 335 335 335 334 334 335 334 334 334 335
319 321 321 322 322 321 321 322 323 325 325 324 323 322 321 321 321 321 322 324 325 328 329 330 331 332 332 332 333 333 333 332 332 332 333 333 333 334 335 336 335 332 332 332 332 333 336 337 336 337 338 339 340 340 338 337 339 339 339 338 338 337 336 335 334 334 334 333 333 334 335 335 335 334
319 321 322 321 321 321 321 322 323 324 325 325 325 324 323 322 321 321 321 321 321 323 325 327 328 329 329 329 328 328 329 329 330 332 333 333 333 334 336 337 337 335 333 333 333 334 337 338 337 337 338 337 337 338 337 337 338 339 339 339 338 338 338 337 336 336 335 335 334 335 335 335 335 334
318 321 322 321 321 321 321 321 322 324 325 325 324 324 324 323 322 322 321 321 321 321 322 322 323 324 324 325 325 324 324 324 325 327 328 329 331 333 334 336 336 336 336 337 337 337 337 335 333 333 333 332 332 333 333 333 334 335 336 337 337 337 338 337 337 337 336 336 336 336 336 335 335 334
317 320 322 322 322 322 321 320 321 322 324 325 324 324 324 324 324 323 322 321 321 321 321 321 321 321 322 322 322 322 322 322 322 323 324 324 325 328 330 332 332 332 333 335 335 335 334 332 331 329 328 326 326 328 330 329 329 330 332 334 334 334 335 335 335 335 336 336 335 335 335 336 336 335
318 319 321 322 322 322 322 321 321 320 322 324 324 323 323 324 324 324 324 323 322 322 322 322 321 321 321 321 321 321 321 321 323 324 324 322 322 323 324 325 325 325 325 326 326 326 326 326 325 324 324 325 325 327 330 331 329 329 331 332 332 331 332 333 334 334 334 334 335 335 336 337 337 336
320 320 321 321 321 321 321 322 321 320 321 322 323 323 322 322 323 324 324 324 324 323 323 322 322 322 322 322 322 322 321 321 322 324 325 325 324 324 323 322 323 323 322 322 323 322 322 322 323 323 324 325 327 329 332 332 331 331 331 331 331 331 331 333 334 334 334 335 336 336 336 336 336 335
320 320 321 321 322 321 321 321 321 321 320 321 322 322 322 321 322 323 324 324 324 324 323 322 322 322 322 322 322 322 322 321 320 321 322 324 325 325 325 325 324 324 324 323 322 321 320 320 322 323 324 326 327 329 330 330 329 329 329 329 329 329 328 329 330 331 333 334 335 335 334 335 335 335
320 320 321 321 321 321 321 321 321 320 321 321 322 323 323 323 323 322 323 324 324 325 324 323 323 323 323 323 323 323 323 322 321 320 320 320 322 323 325 324 323 322 321 320 319 318 317 316 317 318 320 321 323 325 327 328 328 328 328 328 327 326 324 324 324 325 327 329 331 333 334 334 334 334
319 319 320 320 320 320 320 320 320 320 321 321 322 323 323 323 324 324 324 324 325 325 325 325 324 324 324 324 324 324 324 323 323 322 321 321 321 321 322 322 320 319 318 318 318 317 317 317 316 315 315 315 316 318 320 323 325 325 325 324 324 324 322 322 322 323 324 326 329 332 333 332 332 330
318 318 319 319 319 319 319 319 319 319 319 320 320 320 321 321 322 323 324 324 324 324 325 325 325 325 325 324 324 324 324 324 324 324 323 323 323 322 321 321 321 321 321 321 321 320 319 319 318 317 316 315 315 316 317 318 320 322 322 322 323 322 321 321 321 322 323 324 326 327 328 327 326 326
317 317 317 317 318 318 318 318 318 318 319 319 319 319 319 319 320 320 321 321 321 322 323 323 325 325 325 325 324 323 323 324 324 324 324 323 323 323 323 323 323 323 323 323 323 322 322 321 320 320 319 318 317 318 319 320 320 321 321 322 323 323 323 322 322 322 322 323 322 323 323 323 322 322
315 315 315 316 316 316 317 317 317 317 317 318 318 318 318 318 319 319 319 319 320 320 321 322 322 323 324 325 324 323 324 323 323 324 324 324 324 324 324 323 323 323 323 323 323 323 322 322 321 321 321 320 319 319 320 320 320 320 321 323 324 323 322 321 322 321 321 321 321 320 320 320 319 320
313 313 314 314 314 314 314 314 314 315 315 316 316 317 317 318 318 318 318 319 319 319 320 320 320 321 322 322 323 323 324 323 323 324 325 325 324 325 324 324 324 323 322 323 323 323 322 322 322 322 321 320 320 319 319 319 319 319 320 321 322 322 320 320 320 320 320 320 320 319 319 319 319 319
Wind_Speed
32 33 34 34 34 33 33 33 32 32 32 32 32 31 30 31 34 33 31 33 32 29 27 28 32 32 27 27 29 27 26 26 26 25 25 25 26 25 25 25 25 25 25 25 26 25 25 25 26 27 28 29 30 30 31 31 31 31 32 32 32 32 31 30 29 30 30 30 29 28 28 28 28 27
33 33 35 37 36 36 37 37 36 35 35 35 34 33 31 31 35 35 34 36 34 29 28 30 32 32 28 24 26 27 25 24 23 23 23 23 23 23 22 23 23 23 23 23 23 23 24 24 25 26 27 28 28 28 28 29 29 29 30 30 31 31 30 29 29 29 30 30 30 30 29 28 28 27
33 33 34 37 38 39 41 41 39 38 37 36 36 36 35 33 34 35 34 38 39 33 30 30 30 31 30 25 25 27 24 21 21 21 19 19 19 20 21 22 22 22 22 22 22 22 23 24 24 25 25 26 26 27 27 27 27 27 28 28 28 29 29 29 29 29 30 30 30 30 30 29 29 28
33 34 34 36 38 37 38 40 39 38 38 38 37 36 36 35 34 33 34 40 42 36 32 31 29 29 29 26 25 26 24 22 21 20 18 16 16 17 19 20 20 20 20 20 21 21 21 22 23 24 25 25 26 26 27 27 26 26 26 26 27 27 28 28 29 29 29 30 30 30 30 30 30 29
31 33 34 36 37 34 35 37 36 35 37 38 37 36 36 36 35 32 33 38 40 36 33 32 30 27 27 26 25 26 26 25 23 21 19 16 16 17 18 18 18 18 19 19 20 20 21 22 22 23 24 25 26 27 27 27 27 27 27 26 27 27 28 28 29 29 30 30 31 31 31 31 31 29
31 34 35 36 36 34 35 37 35 34 36 37 36 36 36 35 34 33 33 35 36 35 32 30 29 28 27 28 28 27 27 26 25 25 23 20 19 19 19 19 19 18 18 19 19 20 20 21 21 22 23 24 25 25 26 26 26 27 27 28 28 28 28 29 30 30 30 31 32 32 33 33 31 30
32 33 35 37 36 34 35 36 37 37 36 37 37 36 36 34 33 34 34 33 33 33 32 29 28 28 27 28 28 28 29 28 27 28 28 24 22 21 22 23 23 21 20 19 19 20 20 21 21 22 22 22 23 24 24 25 25 25 26 27 28 28 29 29 30 30 30 31 31 32 33 33 31 30
31 31 34 37 36 35 36 36 37 38 38 38 38 38 36 35 34 34 34 34 33 31 31 30 28 28 28 27 26 27 29 30 28 29 30 28 25 23 23 24 25 24 22 21 21 21 21 22 22 23 23 24 24 24 24 25 25 25 25 25 26 27 27 28 29 29 30 31 31 31 31 31 31 30
31 31 33 34 34 35 38 36 36 39 40 40 40 38 36 36 35 33 34 34 34 33 32 31 30 29 28 27 26 26 27 29 30 29 30 29 26 25 25 25 26 25 24 23 23 22 23 23 23 23 24 25 25 25 25 25 25 25 24 24 24 25 25 26 26 27 28 30 31 31 31 31 31 30
29 29 31 32 32 34 36 36 37 38 38 39 40 39 36 35 34 34 34 34 34 34 33 32 31 30 29 27 28 29 28 30 30 28 28 28 26 25 26 26 25 25 25 24 24 24 24 23 23 23 24 25 26 26 26 25 25 25 25 24 23 23 23 23 24 25 26 28 29 31 31 31 31 31
28 27 28 30 33 33 33 35 36 36 35 37 40 40 37 35 34 34 35 34 34 34 34 33 31 30 30 29 30 31 30 29 28 27 27 27 26 25 26 26 25 25 25 25 25 26 25 24 23 23 24 25 26 26 26 25 25 25 25 25 24 23 22 23 24 24 25 26 27 29 30 30 30 30
27 26 26 28 32 33 32 33 34 34 34 35 37 39 38 36 36 36 36 36 35 34 34 34 31 30 31 31 30 29 28 27 27 26 25 25 25 25 25 25 26 26 26 26 26 27 26 25 23 23 24 25 25 25 25 25 25 25 25 25 24 23 22 23 23 24 24 24 25 25 26 27 27 27
27 27 27 27 30 32 32 33 33 34 34 34 35 38 38 39 39 38 37 37 36 35 34 33 31 32 34 32 29 28 28 30 28 25 25 26 25 25 24 24 26 27 27 27 27 28 27 25 24 24 24 24 24 23 24 25 25 25 24 24 24 23 22 22 22 23 23 22 22 22 23 23 23 24
29 29 28 27 28 30 31 33 34 35 35 35 36 36 37 40 41 39 39 40 38 36 36 35 32 34 34 31 30 29 30 31 28 25 26 27 25 24 24 25 27 27 27 28 28 28 27 26 25 24 24 24 24 24 24 24 25 24 24 24 24 23 22 22 22 22 21 20 20 19 19 20 21 22
31 30 28 25 24 25 27 30 33 35 35 36 37 37 38 40 41 40 39 39 38 37 37 35 34 35 33 30 31 30 27 27 28 28 27 25 24 23 24 24 25 26 27 27 28 27 27 26 25 24 24 24 24 24 24 24 24 24 24 24 24 23 22 22 22 21 19 19 18 18 19 19 20 21
29 25 21 18 18 20 22 24 27 31 34 35 37 39 41 42 42 43 42 39 37 37 37 36 34 34 33 31 32 30 25 25 29 30 27 25 23 22 23 23 23 25 24 24 24 25 25 25 25 24 25 25 24 24 23 23 23 24 24 24 23 22 21 21 21 20 19 18 18 18 19 20 20 21
30 26 21 15 14 17 20 22 24 27 29 32 34 35 38 42 44 45 45 43 41 39 39 38 36 34 33 32 33 31 28 29 31 29 27 26 24 23 24 24 23 23 22 21 22 24 25 25 25 24 25 25 24 24 23 22 22 23 23 23 22 20 19 18 18 19 18 18 18 18 19 19 19 19
33 31 28 22 17 15 16 19 23 27 30 31 33 34 34 37 41 44 45 46 45 43 41 40 39 37 35 33 33 32 31 32 31 28 26 26 25 25 25 23 21 20 21 21 22 24 24 24 25 24 24 24 24 23 23 22 21 22 22 22 21 19 17 17 17 18 17 17 18 18 18 18 18 18
33 32 29 26 23 21 21 21 20 24 31 33 35 36 36 37 39 42 45 46 46 46 44 42 41 40 38 36 33 31 30 30 29 28 26 25 24 23 21 20 19 21 22 22 22 24 23 22 23 23 22 22 22 22 21 21 21 21 21 21 20 19 18 17 17 17 17 18 18 18 18 18 18 18
31 32 32 29 27 26 25 26 25 21 24 32 34 35 37 38 40 42 44 44 45 46 46 46 45 43 40 37 35 31 27 26 25 24 24 24 23 21 19 20 20 20 22 23 24 23 21 19 21 22 20 20 20 20 20 20 19 20 20 19 19 19 18 18 17 16 17 17 18 18 18 19 19 18
30 33 33 31 28 27 26 26 27 25 20 23 30 34 38 41 42 43 43 43 42 43 45 47 47 45 42 40 38 34 30 27 25 24 24 25 24 22 22 23 21 19 20 23 24 23 20 19 20 20 18 19 20 19 20 19 18 18 18 17 17 18 19 19 18 17 17 17 16 16 16 18 19 19
28 31 32 31 28 27 26 25 25 26 22 16 20 29 35 40 43 43 42 42 42 41 43 45 46 46 45 43 41 37 33 29 27 28 27 25 25 26 26 25 22 19 20 22 23 22 22 20 20 18 16 16 19 20 19 18 17 17 17 16 16 17 18 19 19 18 18 17 17 16 16 16 17 18
26 28 30 29 29 28 27 25 24 25 24 19 16 18 24 33 39 41 40 40 42 42 42 43 45 46 45 44 42 38 34 31 29 29 29 26 26 27 27 26 23 20 20 23 23 23 23 21 20 20 17 14 16 20 20 18 16 16 16 16 17 18 18 19 19 19 19 19 19 19 18 18 18 19
24 27 28 27 28 31 30 27 25 24 23 22 19 15 14 21 29 34 36 38 41 44 41 39 41 44 44 43 42 39 36 32 30 30 30 28 28 27 25 24 24 22 23 25 23 22 23 21 20 20 18 15 14 16 18 18 17 17 17 16 16 16 17 17 18 19 20 20 20 20 20 19 20 20
22 24 25 25 27 30 31 29 28 25 22 23 24 20 13 13 19 24 29 33 35 37 36 34 36 39 42 43 42 40 37 35 32 32 32 30 28 28 26 24 23 24 25 25 22 21 22 22 20 19 18 17 15 14 14 15 17 18 17 16 15 15 15 16 16 17 18 19 19 19 19 19 19 19
20 21 22 23 25 28 29 30 30 28 25 24 27 26 20 13 11 12 18 26 30 28 29 30 32 36 40 42 41 39 38 36 34 33 32 31 30 30 29 27 25 25 25 23 22 21 22 22 21 19 18 18 17 15 13 13 17 18 17 16 15 14 14 14 15 15 15 16 17 17 17 17 18 18
19 19 20 21 23 25 28 28 29 30 28 25 24 25 24 18 10 7 11 19 26 28 29 29 30 35 39 40 39 39 38 36 34 32 32 32 31 31 31 28 26 25 23 21 21 21 21 20 19 19 19 18 17 16 13 12 15 17 17 16 15 14 13 13 13 13 13 14 14 15 16 16 17 18
17 18 19 21 21 23 25 27 28 30 30 28 23 21 22 23 17 7 7 11 17 25 33 33 32 34 38 38 39 39 37 34 32 31 31 32 31 31 30 28 27 26 23 20 20 20 20 18 17 17 18 18 17 16 14 12 14 16 18 17 16 15 14 13 13 13 12 12 12 12 13 14 16 18
16 17 18 19 19 21 23 24 25 28 30 29 25 20 18 21 23 16 4 6 11 17 26 32 34 35 36 37 37 37 35 32 29 28 31 32 31 30 30 29 28 25 22 21 22 21 20 18 17 16 17 18 18 16 14 13 14 16 19 18 16 15 14 13 13 12 11 11 10 10 11 13 14 15
16 17 18 19 19 20 22 22 23 25 26 26 24 22 20 19 22 23 18 9 1 9 15 22 29 32 34 35 35 33 32 30 28 28 30 31 30 30 30 29 27 24 22 21 22 20 19 17 16 16 17 19 19 17 15 13 14 16 19 18 15 15 16 14 13 12 12 11 10 10 11 13 14 15
14 16 18 17 17 19 20 20 19 20 22 23 24 24 23 21 19 20 23 23 18 10 6 10 17 22 27 30 30 28 27 27 27 28 28 28 30 31 28 26 26 25 23 22 22 21 19 18 17 16 16 18 20 19 17 15 14 17 19 18 15 15 16 16 14 13 12 12 11 11 11 12 14 15
13 15 15 14 14 17 18 19 18 17 18 20 22 24 25 24 22 19 18 21 23 21 17 16 14 14 16 20 22 23 23 23 23 24 24 25 27 26 22 21 23 24 22 21 21 20 20 19 18 17 17 18 20 20 20 18 14 15 17 19 17 16 16 16 15 14 13 13 12 12 12 12 13 14
13 14 14 12 12 15 19 19 18 16 17 18 19 22 24 25 25 25 23 22 20 19 18 18 19 18 17 16 15 16 18 18 17 18 19 20 20 19 17 17 18 19 20 19 18 18 19 20 20 20 18 18 18 17 19 21 19 16 16 17 18 18 17 16 15 15 14 14 13 13 13 13 13 14
13 14 14 12 11 14 18 20 19 17 16 16 17 19 20 22 23 25 26 26 24 20 18 17 15 15 16 16 16 17 17 16 15 14 14 15 14 14 15 16 16 16 17 17 17 17 17 17 18 17 15 14 13 11 12 16 19 18 17 17 17 16 15 15 15 15 14 14 14 15 14 15 15 14
11 13 13 12 11 12 15 18 19 17 15 14 16 18 17 17 19 20 21 23 24 24 23 21 17 14 11 10 10 13 15 15 15 16 15 14 13 12 11 11 11 11 14 16 16 16 15 14 13 12 10 9 9 8 6 8 10 12 13 15 15 14 13 15 15 15 15 16 16 15 15 16 16 16
9 11 12 12 11 11 12 14 16 16 14 13 14 16 14 13 15 17 18 18 19 20 21 21 21 18 15 12 10 9 10 11 13 14 15 15 16 16 15 13 12 11 12 14 15 15 14 13 12 10 8 6 4 4 5 5 7 8 9 10 12 12 11 12 13 13 14 16 17 17 16 16 17 18
10 10 11 12 11 10 11 12 13 14 14 13 13 14 14 12 12 13 14 14 15 16 17 18 19 19 18 18 17 15 13 13 13 14 15 15 15 14 14 13 12 11 12 12 11 10 9 6 6 7 6 4 4 4 4 4 5 7 8 8 10 11 11 11 12 12 13 14 16 17 17 17 17 18
11 10 10 11 12 11 10 10 10 12 13 12 11 12 12 12 11 10 10 10 11 12 12 14 15 15 15 16 17 17 17 16 14 13 13 12 12 11 11 11 10 10 10 10 8 6 5 4 3 4 4 4 4 6 7 7 7 6 6 5 5 7 8 8 10 11 11 12 13 15 15 15 15 15
9 10 9 10 10 11 11 10 9 10 11 10 9 9 9 10 10 10 9 9 9 9 9 10 10 12 12 12 12 13 14 15 14 13 12 10 9 9 9 9 9 8 8 8 8 7 6 5 3 3 3 3 3 3 6 9 9 8 7 5 4 3 3 3 4 6 7 8 11 12 13 13 13 12
9 9 9 9 9 9 10 10 9 9 9 9 9 8 7 7 7 8 8 8 7 7 7 6 5 6 7 7 7 8 8 9 10 10 10 9 8 8 6 5 6 7 7 7 8 8 8 7 5 3 2 1 0 1 3 5 5 5 5 5 4 3 3 3 4 5 5 6 7 8 8 8 8 9
10 10 10 10 10 9 9 9 8 8 9 9 9 8 7 7 6 6 6 6 6 6 6 5 3 3 2 3 4 3 3 4 6 7 6 6 6 5 4 3 2 3 3 3 3 4 5 7 6 5 4 3 2 1 2 5 6 6 6 6 5 5 5 5 5 5 5 5 5 4 5 5 6 6
10 10 11 11 11 11 10 10 9 9 9 9 9 8 8 7 7 6 5 5 5 6 6 5 4 3 3 3 3 3 2 1 3 4 5 5 3 2 3 3 3 3 3 3 2 2 2 1 1 1 1 0 1 2 4 6 7 7 7 8 8 8 7 6 6 5 4 4 3 3 4 5 5 6
10 11 11 10 11 11 11 11 11 11 10 10 10 9 9 8 6 5 5 5 6 6 6 6 5 4 3 4 5 5 3 2 1 2 4 5 4 3 3 3 4 4 4 4 4 5 4 3 3 4 3 3 4 4 4 5 5 4 5 6 8 8 7 7 7 6 5 4 4 4 4 5 5 6
10 11 10 10 10 10 11 11 11 12 12 12 12 11 11 10 9 8 7 7 6 7 7 7 7 6 5 4 3 4 3 3 1 1 3 4 3 3 4 5 5 6 7 8 9 8 7 5 6 6 6 5 5 6 6 7 6 5 4 5 6 8 8 7 6 6 6 6 6 6 6 6 6 5
10 10 10 10 11 11 11 12 12 12 12 12 12 12 12 12 12 11 10 9 8 8 8 8 8 8 7 5 3 2 2 1 1 2 4 4 4 5 5 6 7 8 9 10 10 9 9 10 11 11 10 8 7 7 7 7 8 8 7 6 7 8 8 8 7 7 7 8 9 9 9 9 9 8
Wind_Direction
268 268 267 267 265 263 263 262 260 260 260 258 257 256 255 256 256 257 257 258 257 257 256 258 262 263 261 257 251 248 250 251 250 249 249 252 255 255 255 255 255 254 253 253 254 255 257 258 258 259 259 260 261 262 263 263 263 263 262 261 260 260 260 258 255 254 254 256 259 263 263 262 261 260
269 267 266 266 264 262 264 263 262 262 259 257 256 255 255 255 253 252 254 256 256 254 255 258 262 265 264 259 250 247 249 250 245 241 243 247 251 254 253 251 250 249 248 248 250 253 256 258 260 262 263 264 265 265 265 265 264 263 262 260 260 260 260 258 255 252 252 254 258 261 261 261 261 261
272 268 266 264 263 263 264 262 260 261 259 255 254 255 256 255 254 252 251 255 256 253 253 257 260 263 264 261 250 246 246 244 238 236 238 244 248 249 248 246 244 243 244 246 250 254 257 260 262 264 265 266 266 266 266 266 265 263 261 258 258 258 258 257 254 252 252 253 255 258 260 262 263 263
271 268 265 264 264 263 263 262 259 257 257 256 253 254 254 253 255 253 248 252 255 254 252 254 258 261 262 259 251 245 241 238 239 238 237 239 243 242 242 243 242 243 244 247 251 254 257 260 262 265 266 267 267 268 268 267 267 265 262 259 257 256 256 256 254 252 252 252 252 254 258 262 263 264
270 268 265 263 262 260 258 259 256 251 252 254 251 250 251 250 251 249 245 249 254 255 252 251 254 256 257 256 250 244 241 239 240 242 238 239 244 242 241 241 241 243 244 247 250 252 256 259 263 266 267 268 268 268 269 270 269 268 266 263 259 257 256 254 253 252 251 251 251 252 255 259 261 263
273 271 268 265 262 258 253 252 250 246 249 251 248 246 248 249 247 244 243 246 251 253 252 250 251 252 254 255 249 244 243 243 244 246 246 249 252 247 243 241 240 241 243 246 249 253 257 262 266 268 269 269 269 269 270 269 269 268 267 265 262 260 258 256 255 254 253 253 253 254 255 257 259 260
278 273 270 268 265 259 252 248 246 244 246 247 245 244 246 246 245 242 242 243 246 249 251 250 249 249 252 255 251 246 245 246 248 249 249 253 256 252 246 243 244 244 244 246 251 256 261 265 269 271 271 271 271 272 272 272 270 268 267 265 263 262 261 259 258 257 256 255 255 255 256 256 257 258
283 277 272 270 266 260 253 247 245 246 245 244 243 242 242 243 243 242 242 243 245 247 249 249 248 248 249 252 254 251 247 246 247 247 249 252 255 255 250 246 246 247 245 246 252 257 262 267 270 273 273 273 272 272 273 273 273 271 268 267 265 264 263 262 261 260 257 256 255 255 255 255 255 256
288 282 277 271 266 262 257 249 245 248 247 244 242 241 241 241 241 241 241 242 244 245 247 249 249 247 248 250 252 251 250 249 248 248 249 250 251 255 253 248 247 247 245 246 250 256 261 265 269 272 274 274 273 272 273 273 272 271 269 268 267 266 266 264 263 261 259 257 255 253 253 252 252 254
294 282 277 272 267 263 259 251 247 249 248 244 242 240 239 239 240 240 241 240 241 244 246 248 248 246 247 249 250 250 252 251 250 248 247 248 249 251 251 248 246 245 245 246 249 254 259 263 267 271 273 274 273 272 271 271 271 271 270 270 269 269 269 268 265 263 260 258 256 253 252 250 249 250
302 285 273 268 264 261 257 253 251 250 247 244 242 240 237 237 238 239 240 239 238 241 244 246 247 245 245 247 250 253 254 251 248 246 244 245 246 248 249 247 247 247 246 246 248 251 256 260 266 271 274 275 274 271 269 268 269 270 272 272 270 270 271 270 268 265 263 260 257 255 251 248 246 246
308 295 280 267 262 259 255 254 253 250 248 245 244 241 237 237 238 238 238 239 239 240 243 245 245 241 241 245 249 252 250 245 242 240 238 239 242 246 250 251 250 249 249 247 247 248 253 258 266 274 276 275 273 270 266 266 267 270 272 272 270 269 268 268 267 266 263 260 257 254 250 246 242 241
306 299 290 275 265 258 254 253 252 250 248 245 244 243 240 237 237 236 237 239 240 240 241 243 242 238 238 241 245 245 242 239 238 236 235 236 238 242 250 253 251 249 250 250 249 248 251 257 267 274 277 276 272 267 264 265 267 269 270 270 269 266 264 265 265 264 261 257 252 248 244 240 237 235
313 306 297 283 270 260 254 253 252 250 248 245 244 245 242 238 238 237 238 240 241 240 240 240 239 238 237 237 239 240 238 238 239 239 238 239 239 242 248 253 252 251 251 252 252 250 250 256 267 275 279 277 271 265 265 266 267 268 267 266 266 265 263 262 263 260 255 250 244 239 236 233 232 233
325 316 306 292 277 267 259 255 254 252 250 247 246 245 243 241 240 239 240 241 241 240 240 239 237 235 234 233 236 238 238 238 240 243 244 241 239 242 246 251 253 251 251 252 253 250 249 255 266 275 279 276 269 265 266 268 267 265 263 263 264 264 263 262 259 252 245 241 237 234 234 232 232 232
339 330 319 300 283 277 272 267 263 259 254 250 248 245 243 242 241 241 241 240 239 239 239 237 235 233 232 231 234 237 234 235 241 247 248 241 236 240 243 245 248 251 252 252 250 248 249 256 265 274 278 275 269 266 267 267 266 264 262 262 262 261 261 259 251 241 237 238 237 235 235 233 232 232
354 355 355 339 307 292 284 276 271 266 259 253 251 248 244 241 241 241 241 239 238 238 238 237 235 233 230 229 233 236 235 238 243 246 245 238 233 237 242 243 247 252 252 249 248 248 251 257 264 272 276 272 267 266 267 267 265 263 261 260 258 254 254 251 242 237 237 237 236 235 234 231 229 226
360 360 4 2 348 333 316 296 276 263 258 254 251 249 246 242 240 240 240 239 238 238 238 239 238 236 232 230 233 237 240 243 245 244 242 239 238 241 246 248 249 250 248 244 244 249 253 259 267 272 271 268 266 266 267 265 262 260 260 257 252 247 245 242 238 237 237 235 233 232 230 228 224 219
2 360 1 0 356 355 352 341 313 276 259 253 249 247 247 246 243 242 241 240 239 239 238 237 237 237 235 234 235 238 241 244 246 247 247 248 249 249 249 247 242 242 243 239 240 248 254 258 266 271 267 263 263 264 264 261 258 258 257 252 245 240 239 239 237 237 235 233 232 232 230 227 223 220
360 2 3 360 357 357 355 352 343 316 274 255 250 248 248 249 248 246 245 243 242 240 239 237 236 236 237 237 236 235 236 237 241 244 245 243 243 242 239 237 235 237 242 241 240 247 253 256 262 265 262 259 261 261 260 258 256 256 253 246 240 237 237 238 238 236 235 233 234 234 232 229 227 225
356 2 4 1 358 357 357 354 350 341 312 270 254 250 250 249 248 248 248 247 245 242 239 238 235 234 237 240 239 237 234 233 234 236 235 232 231 231 229 229 231 232 239 243 244 246 250 253 257 258 256 257 258 257 257 257 255 254 250 242 239 238 237 237 236 235 234 232 232 233 231 228 226 226
354 359 3 4 1 358 359 357 353 349 341 309 270 258 253 248 246 246 245 246 246 243 239 237 235 232 234 239 242 241 237 235 233 232 231 229 228 228 227 228 230 233 238 244 245 245 247 250 251 249 249 252 253 252 254 255 253 248 243 240 240 240 238 235 233 232 232 230 230 231 230 227 225 225
351 354 1 7 8 6 3 1 359 357 353 342 314 282 259 247 243 243 241 241 241 241 238 235 232 230 230 233 237 238 237 236 232 229 227 226 226 226 226 226 228 229 235 242 245 245 245 245 243 240 237 241 249 251 249 248 245 238 235 238 242 241 238 235 231 230 231 231 232 232 232 232 231 229
348 352 360 7 11 12 12 9 5 2 358 354 347 324 280 253 246 244 242 239 238 239 238 233 228 226 225 228 231 232 233 233 229 225 224 223 223 223 222 224 226 229 237 245 247 243 240 239 238 236 232 232 244 252 249 241 235 230 230 237 241 238 235 234 232 229 230 231 232 233 232 231 232 232
347 348 356 4 6 8 13 16 13 6 2 4 5 356 327 281 258 250 244 238 236 236 233 227 225 223 221 223 226 228 229 229 223 222 223 221 220 222 222 221 224 230 236 242 243 237 233 232 230 228 227 228 234 244 244 234 229 228 229 232 233 232 232 233 232 229 229 229 231 232 231 230 230 231
349 347 352 0 2 2 7 15 17 14 11 13 13 7 356 327 284 259 243 233 229 226 222 219 219 219 219 219 220 222 225 224 220 221 225 222 219 222 224 224 226 230 235 239 237 230 226 226 225 224 225 227 229 233 233 227 225 224 224 225 226 225 226 229 229 228 226 225 226 227 227 226 226 226
347 346 349 355 358 359 3 10 16 17 17 18 15 10 6 359 335 280 242 230 223 220 218 215 212 212 213 213 214 217 221 220 218 220 222 220 219 221 224 225 227 228 232 234 229 222 218 221 223 224 226 226 226 225 223 222 223 219 216 217 217 216 217 218 219 220 219 219 219 220 220 220 217 216
343 343 346 350 353 357 1 6 13 17 18 19 17 11 10 13 8 333 251 232 225 219 216 213 211 210 209 209 211 215 217 217 218 218 217 217 219 222 222 221 221 223 225 224 220 214 215 219 221 222 224 224 225 223 216 214 220 217 209 206 205 206 208 206 206 209 209 207 207 207 209 212 209 206
339 340 344 348 350 353 358 4 10 15 17 21 20 15 15 23 25 22 360 229 226 218 212 211 212 209 206 208 212 214 214 215 215 213 215 218 218 216 217 218 219 220 219 215 212 211 213 217 218 220 221 220 220 219 210 208 216 211 201 199 202 203 201 197 196 200 199 195 194 193 192 197 200 203
339 341 346 351 352 353 357 3 9 13 17 22 25 24 25 31 36 39 44 52 183 210 204 206 208 206 201 204 209 210 210 214 216 215 219 220 213 208 212 216 214 211 209 207 208 210 212 215 218 221 223 219 214 210 207 209 213 206 197 197 202 203 199 194 191 191 190 187 186 186 186 187 192 200
342 346 351 354 357 357 359 4 9 12 16 24 31 34 34 36 39 44 48 52 57 71 123 166 187 196 197 197 201 204 206 210 213 215 217 214 206 205 210 211 206 204 205 205 208 211 211 213 218 223 223 216 210 207 207 206 206 206 201 198 200 203 200 195 193 190 188 187 187 189 191 191 193 199
350 353 356 356 0 6 8 10 13 14 18 26 34 39 42 43 42 42 46 54 60 64 70 86 111 143 166 177 184 193 199 200 199 199 201 201 200 201 204 204 203 205 207 206 209 213 211 211 217 221 218 215 214 212 208 204 204 208 207 202 202 205 202 197 196 195 191 191 193 195 197 199 201 204
356 1 3 3 6 12 16 18 20 20 22 28 33 37 42 48 49 49 49 52 59 65 67 69 77 89 100 113 131 151 166 172 176 182 190 193 191 191 194 200 206 212 212 208 211 217 216 215 220 219 214 217 221 216 211 212 213 215 215 210 207 207 206 202 201 200 200 202 205 206 207 208 209 209
1 9 13 13 14 17 19 22 25 25 24 29 33 34 37 45 50 53 55 56 57 62 67 69 68 71 78 84 90 98 109 120 131 144 159 170 174 178 187 194 202 211 214 212 214 217 214 213 216 212 205 207 213 210 211 219 221 222 223 221 216 213 213 213 210 207 208 213 216 216 217 218 219 217
3 16 20 20 20 22 22 24 28 29 26 28 30 29 32 40 45 48 54 58 60 62 66 69 69 67 70 76 78 77 79 84 94 103 111 117 119 124 142 161 174 189 196 198 199 197 186 179 182 183 180 186 195 200 209 219 223 228 230 226 222 220 221 223 223 222 221 223 225 226 226 225 225 224
6 19 23 23 22 21 21 25 31 33 30 28 28 29 34 40 41 42 47 52 59 65 67 69 70 70 71 72 70 70 71 72 77 84 89 94 96 97 102 110 116 123 135 146 153 154 151 151 152 152 152 157 171 198 217 221 226 235 235 227 226 230 232 232 233 234 233 233 233 234 235 233 231 230
13 18 21 24 24 21 19 21 30 36 36 35 36 39 44 45 42 43 46 47 51 58 65 69 71 71 71 71 68 68 73 80 85 88 89 92 95 96 98 102 103 99 95 98 107 115 119 128 133 129 133 150 173 196 212 217 224 230 231 228 231 236 239 241 242 242 242 240 238 237 236 234 233 234
18 19 20 22 22 23 22 21 28 38 42 44 44 44 45 47 48 48 51 53 52 54 59 66 70 70 69 69 66 64 67 74 84 92 95 96 95 94 97 101 102 96 88 88 95 103 103 111 129 127 135 170 203 207 194 178 174 187 195 198 207 215 221 229 235 238 239 239 236 233 231 228 228 232
21 23 24 27 26 25 26 27 33 41 41 43 46 44 41 46 50 49 49 56 62 61 58 60 68 71 69 65 63 61 61 65 71 79 89 97 96 93 97 102 98 91 89 91 90 83 72 73 96 131 156 185 216 213 187 174 166 165 172 175 181 195 206 219 229 233 236 234 228 222 220 221 224 228
31 28 28 32 35 35 34 34 38 42 40 40 46 49 46 46 48 48 46 43 42 46 49 52 67 77 75 74 75 72 69 69 70 72 77 86 93 94 97 98 84 72 67 63 54 41 30 29 37 53 82 137 253 239 201 194 182 173 178 188 201 223 242 252 250 247 249 245 233 217 205 207 216 221
39 35 32 32 35 39 43 44 44 47 49 51 53 55 54 51 47 44 41 30 20 23 33 39 48 58 71 89 86 79 80 93 96 94 86 82 88 98 108 109 83 72 76 65 44 26 13 8 9 18 32 31 15 340 254 243 239 231 229 230 235 245 254 256 252 248 245 244 243 229 209 201 203 204
42 41 38 34 32 33 38 42 44 47 50 52 52 53 53 54 53 50 45 38 31 32 35 38 34 13 345 2 20 354 294 126 114 135 141 128 121 139 159 182 206 214 212 207 176 139 115 63 7 353 26 345 247 245 252 254 253 253 250 244 240 238 236 229 225 226 221 216 221 227 221 212 201 195
43 41 39 36 32 30 31 31 32 33 34 34 35 37 38 40 42 41 36 32 29 31 36 39 38 29 10 3 5 354 320 298 288 197 165 150 155 187 214 228 233 234 233 227 207 184 168 160 170 181 185 195 205 213 223 235 241 245 242 234 227 221 216 210 209 212 216 218 222 224 221 217 213 212
40 37 37 38 37 34 32 30 27 25 22 19 19 19 19 21 21 20 19 19 17 20 27 29 30 35 44 40 12 347 335 335 347 109 132 144 175 210 226 229 228 229 235 237 228 209 197 198 201 199 198 200 201 204 209 212 215 217 216 213 211 210 209 206 203 205 214 222 228 234 235 229 226 230
36 30 32 39 42 40 39 39 37 33 27 22 19 15 12 12 13 12 12 12 10 9 12 15 15 18 24 31 33 27 23 29 119 163 159 167 197 224 233 232 230 228 232 240 239 224 213 214 213 212 214 215 209 207 211 213 213 214 213 207 202 202 203 200 197 199 209 219 224 230 234 235 236 242